PAL42C RPME-RPLL

Flight info

Callsign PAL42C
Flight time N/A
Altitude 36000
Route RPME/30 BAMP1B JARED W14 MCT W11 CONDE CONDE7R
Aircraft A320/M-SDE3FGHIRWY/LB1

Departure

Time 2026-04-26 12:57
Airport Bancasi Airport (RPME)

Arrival

Time N/A
Airport Ninoy Aquino International Airport (RPLL)
Time Latitude Longitude Altitude Speed Heading
2026-04-26 12:51 8.94792 125.48602 39 ft 10 kts 120°
2026-04-26 12:51 8.94784 125.48644 42 ft 2 kts 158°
2026-04-26 12:52 8.94781 125.48642 39 ft 1 kts 187°
2026-04-26 12:52 8.94785 125.48623 42 ft 0 kts 297°
2026-04-26 12:56 8.94810 125.48575 41 ft 31 kts 297°
2026-04-26 12:56 8.95006 125.48175 37 ft 94 kts 296°
2026-04-26 12:56 8.95375 125.47409 53 ft 144 kts 295°
2026-04-26 12:57 8.95792 125.46539 671 ft 136 kts 294°
2026-04-26 12:57 8.96202 125.45647 1152 ft 141 kts 296°
2026-04-26 12:57 8.96804 125.44815 1554 ft 155 kts 313°
2026-04-26 12:58 8.97313 125.44279 1799 ft 169 kts 315°
2026-04-26 12:59 9.06404 125.34909 6927 ft 288 kts 315°
2026-04-26 12:59 9.07808 125.33436 7896 ft 293 kts 315°
2026-04-26 13:00 9.09235 125.31940 8861 ft 298 kts 315°
2026-04-26 13:00 9.10684 125.30419 9804 ft 303 kts 315°
2026-04-26 13:00 9.12184 125.28845 10288 ft 324 kts 315°
2026-04-26 13:00 9.13829 125.27124 10461 ft 354 kts 315°
2026-04-26 13:01 9.15576 125.25295 11066 ft 366 kts 315°
2026-04-26 13:03 9.30055 125.10073 17214 ft 400 kts 315°
2026-04-26 13:03 9.31999 125.08031 17917 ft 405 kts 315°
2026-04-26 13:03 9.33964 125.05967 18580 ft 409 kts 315°
2026-04-26 13:03 9.35948 125.03882 19201 ft 413 kts 315°
2026-04-26 13:04 9.37949 125.01777 19838 ft 416 kts 315°
2026-04-26 13:04 9.39965 124.99657 20449 ft 420 kts 315°
2026-04-26 13:04 9.41996 124.97521 21049 ft 423 kts 314°
2026-04-26 13:04 9.44042 124.95367 21634 ft 426 kts 314°
2026-04-26 13:05 9.46099 124.93196 22198 ft 429 kts 314°
2026-04-26 13:05 9.48149 124.90985 22773 ft 432 kts 313°
2026-04-26 13:05 9.50189 124.88733 23334 ft 436 kts 313°
2026-04-26 13:05 9.52234 124.86449 23814 ft 439 kts 313°
2026-04-26 13:06 9.54291 124.84148 24268 ft 442 kts 313°
2026-04-26 13:06 9.56366 124.81835 24728 ft 445 kts 312°
2026-04-26 13:06 9.58459 124.79510 25193 ft 447 kts 313°
2026-04-26 13:06 9.60566 124.77177 25634 ft 450 kts 313°
2026-04-26 13:07 9.62689 124.74832 26050 ft 453 kts 312°
2026-04-26 13:07 9.64823 124.72474 26440 ft 455 kts 312°
2026-04-26 13:07 9.66965 124.70107 26803 ft 457 kts 312°
2026-04-26 13:07 9.69118 124.67731 27130 ft 459 kts 312°
2026-04-26 13:08 9.71282 124.65344 27431 ft 461 kts 312°
2026-04-26 13:08 9.73452 124.62951 27702 ft 462 kts 312°
2026-04-26 13:08 9.75632 124.60544 27949 ft 464 kts 312°
2026-04-26 13:08 9.77817 124.58129 28181 ft 466 kts 312°
2026-04-26 13:09 9.80009 124.55705 28415 ft 467 kts 312°
2026-04-26 13:09 9.82209 124.53275 28670 ft 468 kts 312°
2026-04-26 13:09 9.84410 124.50842 29010 ft 468 kts 312°
2026-04-26 13:09 9.86605 124.48416 29403 ft 466 kts 312°
2026-04-26 13:10 9.88792 124.45999 29865 ft 464 kts 311°
2026-04-26 13:10 9.90973 124.43589 30268 ft 464 kts 311°
2026-04-26 13:10 9.93152 124.41180 30643 ft 464 kts 311°
2026-04-26 13:10 9.95334 124.38766 31018 ft 464 kts 311°
2026-04-26 13:11 9.97510 124.36354 31415 ft 463 kts 311°
2026-04-26 13:11 9.99685 124.33944 31808 ft 463 kts 311°
2026-04-26 13:11 10.01856 124.31538 32233 ft 462 kts 311°
2026-04-26 13:11 10.04024 124.29135 32651 ft 461 kts 311°
2026-04-26 13:12 10.06189 124.26736 33075 ft 461 kts 311°
2026-04-26 13:12 10.08355 124.24337 33499 ft 461 kts 311°
2026-04-26 13:12 10.10519 124.21943 33929 ft 460 kts 311°
2026-04-26 13:12 10.12681 124.19553 34319 ft 460 kts 311°
2026-04-26 13:13 10.14844 124.17165 34738 ft 458 kts 311°
2026-04-26 13:13 10.16995 124.14787 35166 ft 456 kts 311°
2026-04-26 13:13 10.19135 124.12418 35596 ft 454 kts 311°
2026-04-26 13:13 10.21269 124.10052 35880 ft 455 kts 311°
2026-04-26 13:14 10.25511 124.05338 35924 ft 450 kts 311°
2026-04-26 13:14 10.29730 124.00640 35925 ft 450 kts 311°
2026-04-26 13:15 10.34568 123.96587 35920 ft 453 kts 324°
2026-04-26 13:15 10.38890 123.93600 35926 ft 452 kts 324°
2026-04-26 13:16 10.44925 123.89415 35917 ft 452 kts 324°
2026-04-26 13:16 10.50112 123.85810 35905 ft 452 kts 324°
2026-04-26 13:17 10.57893 123.80394 35901 ft 452 kts 324°
2026-04-26 13:18 10.65672 123.74980 35902 ft 452 kts 324°
2026-04-26 13:19 10.73451 123.69572 35900 ft 451 kts 324°
2026-04-26 13:19 10.78636 123.65966 35901 ft 451 kts 324°
2026-04-26 13:20 10.83819 123.62358 35896 ft 451 kts 324°
2026-04-26 13:20 10.88994 123.58744 35903 ft 451 kts 324°
2026-04-26 13:21 10.94170 123.55129 35903 ft 451 kts 324°
2026-04-26 13:21 10.99349 123.51514 35896 ft 451 kts 324°
2026-04-26 13:22 11.04529 123.47903 35901 ft 451 kts 323°
2026-04-26 13:22 11.09708 123.44291 35901 ft 451 kts 323°
2026-04-26 13:23 11.14885 123.40675 35901 ft 451 kts 323°
2026-04-26 13:23 11.20056 123.37055 35902 ft 451 kts 323°
2026-04-26 13:24 11.25231 123.33436 35898 ft 451 kts 323°
2026-04-26 13:24 11.30403 123.29819 35905 ft 451 kts 323°
2026-04-26 13:25 11.34695 123.26803 35910 ft 451 kts 323°
2026-04-26 13:25 11.39862 123.23185 35911 ft 450 kts 323°
2026-04-26 13:26 11.45028 123.19576 35910 ft 450 kts 323°
2026-04-26 13:26 11.50191 123.15960 35906 ft 450 kts 323°
2026-04-26 13:27 11.55354 123.12336 35907 ft 451 kts 323°
2026-04-26 13:27 11.60519 123.08710 35909 ft 451 kts 323°
2026-04-26 13:28 11.65685 123.05084 35912 ft 451 kts 323°
2026-04-26 13:28 11.70856 123.01452 35928 ft 451 kts 323°
2026-04-26 13:29 11.76011 122.97832 35919 ft 449 kts 323°
2026-04-26 13:29 11.81162 122.94216 35914 ft 449 kts 323°
2026-04-26 13:30 11.86314 122.90600 35914 ft 450 kts 323°
2026-04-26 13:30 11.91466 122.86979 35917 ft 449 kts 322°
2026-04-26 13:31 11.96606 122.83359 35913 ft 449 kts 322°
2026-04-26 13:31 12.01742 122.79741 35914 ft 449 kts 322°
2026-04-26 13:32 8.94868 125.48148 35924 ft 0 kts 238°